This is the latest recevied weather packets stored in our database for station/object K7UHP. If no packets are shown the sender has not sent any weather packets the latest 10 day(s).
| Time | Temp. | Humidity | Pressure | Rain* | Wind** | Luminosity | Snow |
|---|---|---|---|---|---|---|---|
| 1777803200 | 11.67° C | 41% | 1016.4 hPa | 0 mm | - | - | - |
| 1777802599 | 12.22° C | 38% | 1016.3 hPa | 0 mm | - | - | - |
| 1777801998 | 12.22° C | 38% | 1016.3 hPa | 0 mm | - | - | - |
| 1777801397 | 12.22° C | 39% | 1016.3 hPa | 0 mm | - | - | - |
| 1777800796 | 11.67° C | 40% | 1016.3 hPa | 0 mm | - | - | - |
| 1777799594 | 12.22° C | 42% | 1016.4 hPa | 0 mm | - | - | - |
| 1777798994 | 12.78° C | 41% | 1016.4 hPa | 0 mm | - | - | - |
| 1777798393 | 12.78° C | 39% | 1016.4 hPa | 0 mm | - | - | - |
| 1777797792 | 12.78° C | 41% | 1016.5 hPa | 0 mm | - | - | - |
| 1777797191 | 12.78° C | 39% | 1016.5 hPa | 0 mm | - | - | - |
| 1777796590 | 12.78° C | 39% | 1016.6 hPa | 0 mm | - | - | - |
| 1777795989 | 13.33° C | 40% | 1016.5 hPa | 0 mm | - | - | - |
| 1777795389 | 12.78° C | 41% | 1016.6 hPa | 0 mm | - | - | - |
| 1777794788 | 12.78° C | 40% | 1016.7 hPa | 0 mm | - | - | - |
| 1777794187 | 12.78° C | 40% | 1016.6 hPa | 0 mm | - | - | - |
| 1777793586 | 12.78° C | 38% | 1016.5 hPa | 0 mm | - | - | - |
| 1777792985 | 12.78° C | 36% | 1016.6 hPa | 0 mm | - | - | - |
| 1777792384 | 13.33° C | 36% | 1016.4 hPa | 0 mm | - | - | - |
| 1777791783 | 14.44° C | 31% | 1016.4 hPa | 0 mm | - | - | - |
| 1777791182 | 15° C | 28% | 1016.3 hPa | 0 mm | - | - | - |
| 1777790582 | 15° C | 27% | 1016.3 hPa | 0 mm | - | - | - |
| 1777789981 | 15° C | 28% | 1016.2 hPa | 0 mm | - | - | - |
| 1777789380 | 15.56° C | 29% | 1016.2 hPa | 0 mm | - | - | - |
| 1777788780 | 15.56° C | 28% | 1016.2 hPa | 0 mm | - | - | - |
| 1777788179 | 16.11° C | 27% | 1016.3 hPa | 0 mm | - | - | - |
* Rain latest hour (hover to see other rain measurements)
** Current wind speed in m/s (hover to see current wind gust speed)